RH
47 42 46 46 64 72 73 72 78 87 90 97 97 96 93 95 94 94 92 92 94 86 92 96 94 93 95 93 92 95 92 95 96 96 88 98 97 95 98 98 98 95 95
54 52 46 54 64 68 75 74 74 88 85 94 94 92 92 94 88 93 93 91 88 89 91 95 94 92 94 95 92 93 96 96 96 95 97 96 96 96 95 97 95 91 97
63 65 59 59 58 68 78 68 75 86 82 90 92 96 96 95 96 93 92 86 81 85 90 92 93 93 96 97 94 94 94 95 94 94 96 94 94 97 96 90 97 94 98
55 67 73 72 55 65 78 76 81 90 81 86 90 88 89 95 94 94 92 88 86 91 92 93 96 96 98 97 97 97 97 95 94 97 97 94 93 94 92 96 95 96 96
53 59 67 62 56 54 72 70 89 91 84 86 90 88 86 88 96 96 88 93 93 96 92 94 96 96 98 97 96 96 96 97 96 97 97 97 98 98 98 96 84 88 95
46 50 55 60 57 60 58 70 89 90 90 91 89 91 87 92 96 96 96 98 99 97 93 92 94 90 89 93 93 90 89 94 98 97 97 96 97 94 98 98 94 96 89
45 49 57 55 55 63 66 73 84 91 93 91 92 90 86 92 92 94 97 98 99 98 96 93 90 88 91 89 93 92 90 90 88 89 95 96 95 95 95 97 96 98 83
45 49 50 58 61 66 70 73 79 83 90 92 89 87 88 96 95 95 97 97 98 98 95 84 87 92 91 95 95 94 92 93 92 92 94 96 96 96 96 94 94 90 92
47 50 48 58 63 70 74 73 79 85 91 90 90 93 92 93 95 94 95 98 97 91 85 84 93 92 92 93 92 95 93 93 94 93 93 95 96 97 97 96 96 84 88
52 50 53 58 62 69 74 74 79 86 91 91 92 90 93 95 96 96 95 96 91 85 86 93 92 91 91 91 90 93 93 92 95 95 95 96 98 98 98 98 97 96 88
55 55 57 59 63 72 77 81 85 90 92 88 93 95 97 97 96 86 89 88 85 86 90 92 92 92 91 90 92 91 90 89 93 94 93 94 94 97 97 98 97 98 97
56 60 62 65 73 77 80 82 82 84 82 87 90 95 97 94 92 84 83 86 87 91 92 92 91 93 91 90 91 89 88 91 92 92 93 93 85 93 94 96 95 95 97
65 68 68 67 70 75 80 82 84 83 82 86 91 97 97 86 79 83 89 89 93 92 92 91 92 92 88 86 91 89 87 86 92 92 92 93 90 91 93 95 95 96 91
65 66 64 63 67 72 78 81 85 83 86 88 94 97 96 88 80 84 90 90 93 92 93 93 91 90 87 87 88 88 88 87 84 80 91 93 92 90 90 92 94 95 96
65 62 60 62 64 75 78 78 79 83 86 94 93 96 96 94 81 85 90 90 91 91 90 91 92 90 86 79 89 86 88 88 88 82 78 74 81 83 86 92 93 94 96
54 56 57 61 63 66 75 78 84 91 90 92 94 96 95 96 87 86 90 92 92 93 93 91 90 85 68 85 81 78 84 88 89 87 86 74 83 86 82 83 79 87 95
45 54 58 59 62 66 76 78 90 88 93 96 97 98 98 96 94 94 93 93 94 92 92 92 93 91 78 84 80 77 89 90 89 90 92 78 75 88 88 77 72 81 85
72 61 55 58 68 81 92 87 93 94 96 96 95 96 96 97 98 97 94 94 95 94 95 93 92 92 83 87 81 79 88 91 90 91 88 93 86 92 90 83 81 83 89
89 90 87 75 91 95 91 93 96 96 95 97 97 97 95 96 98 98 97 97 94 95 94 92 93 92 90 90 87 86 91 93 90 89 74 92 88 85 83 82 82 83 76
95 93 87 88 92 95 90 92 97 97 97 97 97 95 95 95 95 97 98 98 95 92 93 93 92 88 90 92 91 91 96 94 94 89 73 78 87 90 86 84 86 86 80
93 96 97 99 98 97 96 97 97 96 97 94 94 94 94 91 93 95 97 98 97 95 95 92 93 93 91 92 94 94 96 97 91 89 74 83 89 93 89 82 91 86 86
94 95 97 97 98 97 97 96 97 95 94 98 98 98 98 98 98 96 98 93 91 93 94 95 95 96 93 94 94 95 94 90 83 73 62 85 90 91 89 88 86 90 90
99 98 99 98 98 96 94 96 97 97 98 98 99 97 96 98 99 98 96 94 94 95 97 97 96 96 95 97 96 95 94 93 84 73 68 78 86 87 87 80 81 86 95
98 97 98 97 98 97 96 96 97 98 97 97 98 98 99 99 99 99 99 96 97 97 96 98 97 96 97 97 98 98 99 94 94 84 85 83 83 82 82 86 85 93 95
98 97 97 98 99 96 96 95 95 96 97 98 98 99 99 99 99 96 96 94 95 93 96 97 96 96 96 84 96 98 99 98 93 84 84 82 84 74 69 74 80 86 93
96 98 98 98 99 98 98 97 94 97 98 98 99 99 99 99 98 98 97 100 99 100 100 98 97 94 85 87 89 98 98 94 88 85 84 82 78 76 79 82 84 86 80
Wind_Speed
4 7 11 12 11 9 10 10 8 7 5 3 3 2 3 3 3 3 4 5 5 5 5 3 3 1 3 3 3 2 1 1 1 1 1 3 2 2 3 2 1 3 3
4 6 9 10 13 15 12 9 9 9 7 4 3 3 3 2 1 2 2 3 3 2 2 4 2 1 1 1 2 3 1 2 2 2 1 2 2 2 3 3 3 4 1
9 6 8 11 12 12 11 13 11 11 9 8 2 2 3 2 1 1 1 1 2 2 1 1 3 2 2 1 2 2 3 2 1 1 3 1 2 1 2 3 3 4 3
10 9 9 9 14 12 8 8 10 10 10 8 5 5 4 4 3 3 1 2 2 4 3 4 4 4 2 3 2 2 0 2 2 1 1 2 3 2 2 3 3 4 5
16 15 14 15 12 12 11 7 7 7 7 7 6 5 3 3 1 2 2 0 2 0 4 4 5 4 3 3 4 4 3 1 2 1 1 2 1 1 2 3 2 2 4
18 16 12 11 11 8 10 9 8 8 6 6 7 7 7 5 3 3 3 2 2 2 2 4 5 4 4 3 2 2 2 1 3 2 2 2 2 1 1 1 2 3 4
15 15 13 14 15 13 12 10 13 12 7 6 5 6 6 6 6 5 4 4 2 1 2 3 3 3 3 3 3 4 4 3 2 1 1 1 1 1 1 1 2 2 3
17 20 19 14 14 14 13 11 10 8 7 6 6 5 6 4 4 4 3 3 3 4 4 4 4 4 4 3 4 3 3 4 4 5 4 2 2 1 0 2 2 1 2
16 18 17 14 13 13 14 14 12 7 8 8 6 5 5 5 4 4 4 3 4 3 5 5 5 3 3 4 3 2 3 3 3 3 3 2 2 2 0 1 2 3 2
8 10 13 14 12 13 12 11 11 12 9 8 7 6 6 5 5 5 5 5 5 4 6 5 5 4 4 3 3 2 3 3 1 0 3 2 1 3 3 2 1 0 3
8 9 10 11 12 11 12 12 12 11 10 10 8 7 7 7 7 6 6 7 6 7 6 6 4 4 3 2 3 3 2 2 3 2 2 3 2 2 2 3 3 2 1
10 9 9 12 12 13 12 12 12 11 12 11 11 10 9 9 9 9 9 8 8 6 7 7 7 6 4 4 4 3 2 4 4 2 3 1 2 2 2 1 2 2 2
8 8 7 11 13 13 12 11 10 11 10 9 9 9 10 9 9 8 7 7 7 7 7 7 6 7 6 6 5 6 5 3 3 3 4 3 2 1 1 1 1 1 2
10 11 10 12 12 11 11 12 11 11 9 8 8 10 12 13 11 8 7 7 7 8 7 5 5 5 5 5 4 4 4 2 2 1 2 3 4 4 3 1 1 1 2
9 13 14 12 10 10 11 11 12 11 10 10 10 10 10 7 8 8 9 8 6 6 7 6 4 3 4 3 5 4 4 4 2 2 2 3 6 7 6 2 2 0 1
11 13 11 9 11 14 13 4 7 6 3 3 4 5 5 5 7 7 8 8 8 6 6 6 7 6 3 7 10 6 4 4 1 1 2 2 4 3 5 2 2 3 2
3 5 8 7 5 4 7 7 11 11 11 10 9 7 4 3 6 5 6 6 8 8 7 5 5 6 4 6 7 7 4 2 2 3 3 4 3 5 3 1 4 6 4
5 6 6 7 8 7 12 15 13 12 10 9 8 5 6 4 4 5 6 4 4 6 6 6 4 3 4 6 6 5 2 2 1 3 5 6 6 5 4 2 1 2 4
4 6 6 7 9 16 17 16 11 10 7 11 8 11 7 6 7 4 8 4 2 2 4 5 6 5 4 6 7 4 1 2 3 2 4 4 5 7 8 3 1 4 4
6 7 8 5 8 10 13 15 11 7 8 6 16 19 13 14 14 14 4 6 4 5 4 5 6 6 5 6 7 6 3 3 2 4 5 6 6 8 9 5 3 2 4
5 4 6 8 6 4 3 6 3 6 8 3 7 15 20 21 19 20 13 8 6 5 5 5 3 5 5 5 7 8 4 3 2 2 4 4 4 6 7 6 4 6 4
6 5 5 6 5 6 5 4 7 3 3 4 5 11 8 6 10 17 13 9 7 6 5 4 2 2 2 5 5 8 9 7 4 4 3 5 5 7 8 6 8 8 5
4 3 4 7 7 6 5 8 5 0 6 5 5 7 9 11 7 8 11 6 5 4 4 3 3 3 3 4 8 10 12 9 4 4 6 6 7 8 6 9 11 5 3
3 4 5 8 6 6 7 5 6 7 3 4 3 2 7 7 6 5 5 5 4 4 3 4 4 3 3 5 4 4 5 7 6 5 3 3 6 8 7 5 4 2 3
5 6 6 7 7 5 5 5 4 4 4 3 3 1 1 2 3 3 3 3 3 4 4 3 3 2 4 5 4 6 5 5 4 3 1 2 2 4 4 4 5 4 4
3 6 6 7 6 4 4 2 0 3 3 6 3 2 0 3 1 2 1 1 2 2 5 1 2 2 8 9 10 7 8 6 12 2 3 3 3 4 4 5 5 4 6
Wind_Direction
226 203 184 171 158 165 184 189 163 170 164 147 161 177 217 197 231 243 253 241 259 229 209 208 222 129 167 197 194 202 199 273 220 288 37 81 46 337 295 300 325 246 222
183 171 184 167 174 177 187 184 181 171 185 180 179 173 173 197 181 161 213 198 220 241 214 201 204 118 287 336 243 191 200 226 186 127 72 10 346 293 277 303 247 254 228
185 163 179 183 180 186 186 191 188 176 189 191 145 85 70 62 85 245 253 236 215 224 209 136 127 133 156 199 229 221 192 210 352 122 144 89 230 327 303 288 259 250 225
188 167 176 184 191 194 192 177 188 181 190 176 184 177 168 176 209 193 168 260 316 344 107 120 97 85 69 67 51 35 193 146 165 74 100 80 139 167 324 307 290 266 254
184 184 182 193 195 184 195 188 162 184 185 180 194 185 163 199 98 109 138 229 335 155 95 99 97 82 68 59 59 39 35 23 111 108 113 89 112 153 142 261 303 294 252
194 187 186 187 198 187 191 183 178 202 203 192 196 177 184 175 147 142 152 170 178 96 104 99 91 80 72 44 46 77 58 128 113 119 126 149 156 229 175 262 273 251 294
190 187 182 188 199 189 187 180 172 203 200 208 196 187 184 174 179 168 161 165 140 118 123 91 83 68 70 59 54 83 55 38 61 77 105 83 96 122 158 155 256 280 315
187 189 189 182 183 185 180 178 185 183 168 187 192 189 170 175 176 175 159 168 160 143 138 115 108 94 71 63 60 54 48 65 54 63 64 57 32 52 174 192 160 310 325
186 188 183 179 173 176 178 181 181 179 172 180 175 179 163 165 174 162 151 151 134 129 125 123 121 97 83 84 78 80 71 65 43 56 67 79 344 0 275 256 205 167 207
156 181 175 175 173 175 173 175 181 181 175 166 164 176 183 175 160 140 140 133 124 119 130 140 139 125 110 95 82 50 43 77 32 75 89 85 82 18 7 34 91 231 154
172 174 175 175 168 167 171 177 178 174 172 166 167 168 167 161 148 144 147 152 147 148 150 156 150 149 136 112 100 116 91 136 97 88 57 57 76 64 25 5 19 37 96
171 161 170 165 166 174 175 180 186 187 186 181 178 174 159 159 160 169 166 161 158 157 160 161 163 167 168 165 141 126 108 121 132 116 115 123 95 69 17 31 37 12 353
133 144 166 176 182 181 180 184 189 197 195 185 174 166 170 166 172 166 160 162 161 163 165 159 169 175 181 174 165 160 161 127 150 158 161 183 131 29 5 28 37 0 346
153 170 191 194 189 183 185 187 186 190 185 181 182 180 175 181 173 165 169 164 170 165 174 184 178 183 183 181 168 165 151 142 148 171 174 182 202 193 175 156 118 71 32
173 190 206 197 185 185 192 198 198 188 176 179 184 190 187 169 166 167 164 164 171 175 170 167 182 182 190 191 170 161 142 144 164 199 264 277 247 207 195 178 257 128 87
200 205 212 201 194 195 198 130 49 46 6 245 196 177 187 206 186 174 174 163 159 159 162 177 162 174 201 175 168 160 159 151 107 185 263 298 331 198 207 224 357 228 202
327 279 259 270 353 91 129 136 105 83 76 54 20 27 6 248 192 191 169 189 171 154 164 158 151 181 199 184 174 157 132 131 184 246 266 264 198 171 184 344 1 341 333
348 282 226 171 158 124 95 103 96 91 94 66 41 354 78 48 320 288 216 203 178 157 154 160 166 152 188 200 194 183 154 122 236 239 283 262 253 215 196 195 325 337 307
276 274 261 185 145 132 133 124 122 126 119 121 86 272 224 197 179 211 273 247 178 211 154 155 160 170 206 210 198 171 251 280 282 276 297 290 228 226 197 182 282 326 318
342 13 31 59 107 122 138 130 145 171 113 206 178 230 224 211 191 166 178 230 194 193 159 158 168 192 209 207 192 173 173 257 267 288 293 306 234 214 194 190 202 302 277
33 42 69 80 94 82 72 97 38 344 8 91 226 252 246 220 188 156 161 229 199 171 169 160 161 194 200 218 199 180 187 223 217 257 295 283 288 209 217 203 200 226 207
17 17 75 81 51 24 24 44 49 62 350 308 359 359 2 145 135 146 130 209 161 160 147 144 178 229 240 237 228 209 209 191 190 240 256 274 273 252 258 256 243 241 252
32 14 59 60 38 33 33 87 125 232 17 27 53 65 63 76 69 119 173 164 145 145 145 152 190 243 238 237 222 218 218 207 196 195 234 256 278 278 283 278 276 264 211
50 52 79 78 67 51 50 60 27 4 63 80 4 329 118 142 151 144 146 125 149 138 160 182 211 232 256 258 234 221 214 226 221 229 251 272 276 271 269 305 304 274 237
48 56 61 70 73 56 29 348 360 5 17 12 347 15 87 117 131 141 150 147 188 169 172 192 198 230 279 271 244 196 202 194 202 112 27 317 304 301 307 304 292 287 276
70 63 61 68 60 41 14 2 8 18 34 28 351 348 98 119 113 161 172 156 193 180 242 229 186 258 248 283 291 235 225 181 144 140 206 231 232 264 289 296 297 285 276